TimeEDT,TemperatureF,Dew PointF,Humidity,Sea Level PressureIn,VisibilityMPH,Wind Direction,Wind SpeedMPH,Gust SpeedMPH,PrecipitationIn,Events,Conditions,WindDirDegrees,DateUTC
12:53 AM,69.1,61.0,75,29.98,10.0,Calm,Calm,-,N/A,,Clear,0,2013-06-19 04:53:00
1:53 AM,68.0,61.0,78,29.98,10.0,Calm,Calm,-,N/A,,Clear,0,2013-06-19 05:53:00
2:53 AM,66.0,62.1,87,29.98,10.0,Calm,Calm,-,N/A,,Clear,0,2013-06-19 06:53:00
3:53 AM,66.0,62.1,87,29.99,10.0,Calm,Calm,-,N/A,,Clear,0,2013-06-19 07:53:00
4:53 AM,64.9,62.1,90,29.99,10.0,NE,3.5,-,N/A,,Clear,50,2013-06-19 08:53:00
5:53 AM,66.0,62.1,87,30.00,10.0,Calm,Calm,-,N/A,,Clear,0,2013-06-19 09:53:00
6:53 AM,66.0,61.0,84,30.02,10.0,NE,3.5,-,N/A,,Mostly Cloudy,40,2013-06-19 10:53:00
7:53 AM,66.9,61.0,81,30.04,10.0,ENE,4.6,-,N/A,,Clear,60,2013-06-19 11:53:00
8:53 AM,69.1,60.1,73,30.07,10.0,ENE,6.9,-,N/A,,Clear,70,2013-06-19 12:53:00
9:53 AM,71.1,61.0,70,30.07,10.0,NE,4.6,-,N/A,,Clear,50,2013-06-19 13:53:00
10:53 AM,73.9,62.1,66,30.07,10.0,ESE,4.6,-,N/A,,Clear,120,2013-06-19 14:53:00
11:53 AM,77.0,61.0,58,30.08,10.0,East,6.9,-,N/A,,Partly Cloudy,100,2013-06-19 15:53:00
12:53 PM,79.0,62.1,56,30.08,10.0,ENE,8.1,-,N/A,,Mostly Cloudy,70,2013-06-19 16:53:00
1:53 PM,81.0,62.1,52,30.06,10.0,Variable,4.6,-,N/A,,Partly Cloudy,0,2013-06-19 17:53:00
2:53 PM,82.0,62.1,51,30.06,10.0,Variable,5.8,-,N/A,,Scattered Clouds,0,2013-06-19 18:53:00
3:53 PM,81.0,60.1,49,30.06,10.0,East,3.5,-,N/A,,Scattered Clouds,80,2013-06-19 19:53:00
4:53 PM,82.0,60.1,47,30.04,10.0,ESE,6.9,-,N/A,,Scattered Clouds,110,2013-06-19 20:53:00
5:53 PM,82.0,59.0,45,30.04,10.0,East,5.8,-,N/A,,Partly Cloudy,90,2013-06-19 21:53:00
6:53 PM,82.9,59.0,44,30.04,10.0,East,8.1,-,N/A,,Mostly Cloudy,80,2013-06-19 22:53:00
7:53 PM,82.0,59.0,45,30.04,10.0,East,6.9,-,N/A,,Partly Cloudy,80,2013-06-19 23:53:00
8:53 PM,80.1,60.1,50,30.05,10.0,East,3.5,-,N/A,,Clear,100,2013-06-20 00:53:00
9:53 PM,78.1,61.0,56,30.06,10.0,ENE,3.5,-,N/A,,Clear,70,2013-06-20 01:53:00
10:53 PM,75.9,61.0,60,30.09,10.0,Calm,Calm,-,N/A,,Clear,0,2013-06-20 02:53:00
11:53 PM,73.9,61.0,64,30.10,10.0,ENE,3.5,-,N/A,,Clear,60,2013-06-20 03:53:00